LHA8289 ZBAD-OAKB

Flight info

Callsign LHA8289
Flight time N/A
Altitude 36100
Route PEGSO B215 GODON/K0870S1160 B215 NIRUV W199 ALGOT V67 JSG W619 BILDA W112 PURPA/N0470F400 G206 GULNI
Aircraft A339/H-SDE1E2FGHIJ4RWXYZ/S

Departure

Time 2026-04-24 12:06
Airport Beijing Daxing International Airport (ZBAD)

Arrival

Time N/A
Airport Kabul International Airport (OAKB)
Time Latitude Longitude Altitude Speed Heading
2026-04-24 12:05 39.43173 116.40903 3037 ft 223 kts 176°
2026-04-24 12:06 39.41562 116.41142 3382 ft 243 kts 175°
2026-04-24 12:06 39.39815 116.41424 3739 ft 260 kts 174°
2026-04-24 12:06 39.38001 116.41726 4320 ft 266 kts 174°
2026-04-24 12:06 39.36148 116.41979 4869 ft 271 kts 181°
2026-04-24 12:07 39.34317 116.41450 5481 ft 272 kts 207°
2026-04-24 12:07 39.32819 116.39968 6055 ft 275 kts 231°
2026-04-24 12:07 39.31816 116.37858 6664 ft 277 kts 245°
2026-04-24 12:07 39.31013 116.35600 7337 ft 277 kts 247°
2026-04-24 12:08 39.30207 116.33325 7751 ft 280 kts 246°
2026-04-24 12:08 39.29343 116.31067 7881 ft 281 kts 244°
2026-04-24 12:08 39.28432 116.28838 7916 ft 281 kts 243°
2026-04-24 12:08 39.27495 116.26627 7908 ft 280 kts 242°
2026-04-24 12:09 39.26549 116.24430 7910 ft 281 kts 242°
2026-04-24 12:09 39.25598 116.22230 7934 ft 281 kts 242°
2026-04-24 12:09 39.24651 116.20028 7913 ft 281 kts 242°
2026-04-24 12:09 39.23707 116.17829 7947 ft 280 kts 242°
2026-04-24 12:10 39.22762 116.15630 7942 ft 280 kts 242°
2026-04-24 12:10 39.21817 116.13429 7924 ft 281 kts 242°
2026-04-24 12:10 39.21190 116.11974 7929 ft 280 kts 242°
2026-04-24 12:11 39.19292 116.07565 8170 ft 284 kts 242°
2026-04-24 12:11 39.18335 116.05339 8903 ft 282 kts 242°
2026-04-24 12:11 39.17381 116.03122 9586 ft 284 kts 242°
2026-04-24 12:11 39.16418 116.00882 10195 ft 287 kts 242°
2026-04-24 12:12 39.15424 115.98577 10477 ft 304 kts 241°
2026-04-24 12:12 39.13994 115.95270 10714 ft 328 kts 241°
2026-04-24 12:12 39.13247 115.93547 10944 ft 335 kts 241°
2026-04-24 12:12 39.12109 115.90923 11549 ft 336 kts 241°
2026-04-24 12:13 39.10967 115.88291 12171 ft 337 kts 241°
2026-04-24 12:13 39.09819 115.85648 12768 ft 340 kts 241°
2026-04-24 12:13 39.08661 115.82985 13347 ft 342 kts 241°
2026-04-24 12:13 39.07493 115.80305 13944 ft 344 kts 241°
2026-04-24 12:14 39.06317 115.77605 14427 ft 348 kts 241°
2026-04-24 12:14 39.05127 115.74874 14942 ft 351 kts 241°
2026-04-24 12:14 39.03927 115.72125 15426 ft 354 kts 241°
2026-04-24 12:14 39.02715 115.69351 15948 ft 357 kts 241°
2026-04-24 12:15 39.01494 115.66557 16428 ft 360 kts 242°
2026-04-24 12:15 39.00261 115.63738 16930 ft 363 kts 242°
2026-04-24 12:15 38.99019 115.60900 17431 ft 366 kts 242°
2026-04-24 12:15 38.97764 115.58040 17941 ft 368 kts 242°
2026-04-24 12:16 38.96501 115.55163 18437 ft 371 kts 242°
2026-04-24 12:16 38.95230 115.52267 18860 ft 374 kts 242°
2026-04-24 12:16 38.94015 115.49315 19263 ft 376 kts 247°
2026-04-24 12:16 38.92947 115.46232 19686 ft 379 kts 248°
2026-04-24 12:17 38.91874 115.43132 20138 ft 381 kts 248°
2026-04-24 12:17 38.90787 115.40009 20571 ft 384 kts 248°
2026-04-24 12:17 38.89688 115.36870 21020 ft 387 kts 248°
2026-04-24 12:17 38.88578 115.33704 21463 ft 390 kts 248°
2026-04-24 12:18 38.87458 115.30515 21884 ft 393 kts 247°
2026-04-24 12:18 38.86329 115.27307 22351 ft 396 kts 247°
2026-04-24 12:18 38.85190 115.24071 22775 ft 399 kts 247°
2026-04-24 12:18 38.84042 115.20816 23212 ft 402 kts 247°
2026-04-24 12:19 38.82899 115.17575 23629 ft 405 kts 247°
2026-04-24 12:19 38.81792 115.14443 24044 ft 407 kts 248°
2026-04-24 12:19 38.80638 115.11181 24461 ft 408 kts 247°
2026-04-24 12:19 38.79462 115.07859 24855 ft 410 kts 247°
2026-04-24 12:20 38.78279 115.04528 25264 ft 412 kts 247°
2026-04-24 12:20 38.77181 115.01437 25639 ft 413 kts 247°
2026-04-24 12:20 38.76006 114.98125 26028 ft 415 kts 247°
2026-04-24 12:20 38.74808 114.94749 26409 ft 417 kts 247°
2026-04-24 12:21 38.73603 114.91358 26804 ft 419 kts 247°
2026-04-24 12:21 38.72392 114.87952 27202 ft 421 kts 247°
2026-04-24 12:21 38.71176 114.84536 27582 ft 423 kts 247°
2026-04-24 12:21 38.69950 114.81100 27965 ft 425 kts 247°
2026-04-24 12:22 38.68720 114.77654 28329 ft 427 kts 247°
2026-04-24 12:22 38.67481 114.74190 28669 ft 429 kts 247°
2026-04-24 12:22 38.66239 114.70718 29036 ft 430 kts 247°
2026-04-24 12:22 38.64989 114.67227 29400 ft 432 kts 247°
2026-04-24 12:23 38.63733 114.63724 29768 ft 434 kts 247°
2026-04-24 12:23 38.62471 114.60212 30106 ft 436 kts 246°
2026-04-24 12:23 38.61199 114.56686 30434 ft 437 kts 246°
2026-04-24 12:23 38.59916 114.53157 30760 ft 439 kts 246°
2026-04-24 12:24 38.58624 114.49613 31074 ft 440 kts 246°
2026-04-24 12:24 38.57335 114.46057 31398 ft 442 kts 246°
2026-04-24 12:24 38.56041 114.42483 31701 ft 444 kts 246°
2026-04-24 12:24 38.54744 114.38901 31998 ft 445 kts 246°
2026-04-24 12:25 38.53439 114.35305 32312 ft 447 kts 246°
2026-04-24 12:25 38.52129 114.31699 32591 ft 448 kts 246°
2026-04-24 12:25 38.50814 114.28085 32816 ft 450 kts 246°
2026-04-24 12:25 38.49512 114.24510 33014 ft 451 kts 246°
2026-04-24 12:26 38.48186 114.20874 33210 ft 452 kts 246°
2026-04-24 12:26 38.46857 114.17235 33381 ft 453 kts 246°
2026-04-24 12:26 38.45524 114.13589 33569 ft 454 kts 246°
2026-04-24 12:26 38.44188 114.09942 33794 ft 453 kts 246°
2026-04-24 12:27 38.42855 114.06307 34022 ft 453 kts 246°
2026-04-24 12:27 38.41520 114.02669 34181 ft 453 kts 246°
2026-04-24 12:27 38.40187 113.99036 34343 ft 453 kts 246°
2026-04-24 12:27 38.38851 113.95399 34490 ft 453 kts 246°
2026-04-24 12:28 38.37515 113.91763 34643 ft 453 kts 246°
2026-04-24 12:28 38.36177 113.88126 34782 ft 454 kts 246°
2026-04-24 12:28 38.34834 113.84483 34928 ft 454 kts 246°
2026-04-24 12:28 38.33490 113.80843 35063 ft 455 kts 246°
2026-04-24 12:29 38.32128 113.77206 35201 ft 455 kts 246°
2026-04-24 12:29 38.30752 113.73567 35320 ft 456 kts 246°
2026-04-24 12:29 38.29377 113.69932 35468 ft 456 kts 246°
2026-04-24 12:29 38.27999 113.66291 35618 ft 456 kts 246°
2026-04-24 12:30 38.26620 113.62650 35754 ft 457 kts 246°
2026-04-24 12:30 38.25240 113.59004 35906 ft 457 kts 246°
2026-04-24 12:30 38.23859 113.55362 36034 ft 458 kts 246°
2026-04-24 12:30 38.22475 113.51712 36161 ft 458 kts 246°
2026-04-24 12:31 38.21089 113.48063 36293 ft 459 kts 246°
2026-04-24 12:31 38.19701 113.44416 36425 ft 459 kts 246°
2026-04-24 12:31 38.18311 113.40764 36547 ft 459 kts 246°
2026-04-24 12:31 38.16919 113.37109 36673 ft 460 kts 246°
2026-04-24 12:32 38.15529 113.33450 36799 ft 460 kts 247°
2026-04-24 12:32 38.14158 113.29773 36926 ft 460 kts 247°
2026-04-24 12:32 38.12795 113.26097 37033 ft 461 kts 247°
2026-04-24 12:32 38.11428 113.22415 37189 ft 461 kts 247°
2026-04-24 12:33 38.10056 113.18733 37293 ft 461 kts 247°
2026-04-24 12:33 38.08681 113.15054 37406 ft 462 kts 247°
2026-04-24 12:33 38.07301 113.11369 37525 ft 462 kts 247°
2026-04-24 12:33 38.05919 113.07684 37655 ft 463 kts 247°
2026-04-24 12:34 38.04534 113.04000 37763 ft 463 kts 247°
2026-04-24 12:34 38.03167 113.00365 37875 ft 463 kts 247°
2026-04-24 12:34 38.01761 112.96631 37974 ft 464 kts 247°
2026-04-24 12:34 38.00369 112.92935 38080 ft 464 kts 247°
2026-04-24 12:35 37.98993 112.89290 38211 ft 464 kts 247°
2026-04-24 12:35 37.97599 112.85599 38325 ft 465 kts 248°
2026-04-24 12:35 37.96200 112.81901 38416 ft 466 kts 248°
2026-04-24 12:35 37.94801 112.78205 38529 ft 466 kts 248°
2026-04-24 12:36 37.93397 112.74503 38645 ft 466 kts 248°
2026-04-24 12:36 37.91993 112.70805 38753 ft 466 kts 248°
2026-04-24 12:36 37.90589 112.67111 38853 ft 466 kts 248°
2026-04-24 12:36 37.89182 112.63418 38964 ft 465 kts 248°
2026-04-24 12:37 37.87777 112.59730 39063 ft 465 kts 248°
2026-04-24 12:37 37.86344 112.56052 39167 ft 466 kts 246°
2026-04-24 12:37 37.84820 112.52435 39260 ft 466 kts 245°
2026-04-24 12:38 37.81710 112.45239 39446 ft 466 kts 245°
2026-04-24 12:38 37.79093 112.37821 39587 ft 460 kts 257°
2026-04-24 12:39 37.78268 112.25953 39799 ft 450 kts 279°
2026-04-24 12:39 37.78678 112.22034 39863 ft 450 kts 280°
2026-04-24 12:40 37.79464 112.14193 40006 ft 449 kts 279°
2026-04-24 12:40 37.80215 112.06352 40014 ft 449 kts 279°
2026-04-24 12:41 37.80959 111.98516 40014 ft 449 kts 279°
2026-04-24 12:41 37.81699 111.90672 40016 ft 449 kts 279°
2026-04-24 12:42 37.82435 111.82832 40017 ft 449 kts 279°
2026-04-24 12:42 37.83167 111.74984 40022 ft 449 kts 279°
2026-04-24 12:43 37.83923 111.67199 40013 ft 449 kts 280°
2026-04-24 12:43 37.84807 111.59331 40018 ft 448 kts 281°
2026-04-24 12:44 37.85669 111.51564 40015 ft 449 kts 281°
2026-04-24 12:44 37.86442 111.43724 40010 ft 449 kts 279°
2026-04-24 12:45 37.87101 111.35856 40002 ft 450 kts 279°
2026-04-24 12:45 37.87774 111.27986 39991 ft 450 kts 279°
2026-04-24 12:46 37.88452 111.20111 39980 ft 450 kts 279°
2026-04-24 12:46 37.89128 111.12224 39972 ft 451 kts 279°
2026-04-24 12:47 37.89800 111.04333 39968 ft 451 kts 279°
2026-04-24 12:47 37.90468 110.96438 39957 ft 451 kts 279°
2026-04-24 12:48 37.91129 110.88547 39948 ft 451 kts 279°
2026-04-24 12:48 37.91784 110.80645 39946 ft 451 kts 279°
2026-04-24 12:49 37.92434 110.72746 39942 ft 451 kts 279°
2026-04-24 12:49 37.93084 110.64847 39932 ft 451 kts 279°
2026-04-24 12:50 37.93874 110.56982 39927 ft 450 kts 281°
2026-04-24 12:50 37.94697 110.49130 39926 ft 450 kts 281°
2026-04-24 12:51 37.95495 110.41264 39925 ft 450 kts 281°
2026-04-24 12:51 37.96277 110.33397 39922 ft 450 kts 281°
2026-04-24 12:52 37.97053 110.25532 39917 ft 450 kts 281°
2026-04-24 12:52 37.97827 110.17665 39921 ft 450 kts 281°
2026-04-24 12:53 37.98593 110.09800 39918 ft 450 kts 281°
2026-04-24 12:53 37.99350 110.01978 39912 ft 450 kts 281°
2026-04-24 12:54 38.00107 109.94104 39911 ft 450 kts 281°
2026-04-24 12:54 38.00857 109.86228 39907 ft 450 kts 281°
2026-04-24 12:55 38.01603 109.78353 39908 ft 450 kts 281°
2026-04-24 12:55 38.02346 109.70470 39909 ft 450 kts 281°
2026-04-24 12:56 38.03082 109.62586 39911 ft 450 kts 281°
2026-04-24 12:56 38.03812 109.54697 39913 ft 450 kts 281°
2026-04-24 12:57 38.04539 109.46803 39915 ft 450 kts 281°
2026-04-24 12:57 38.05260 109.38913 39919 ft 450 kts 281°
2026-04-24 12:58 38.05975 109.31017 39918 ft 450 kts 281°
2026-04-24 12:58 38.06685 109.23132 39922 ft 450 kts 281°
2026-04-24 12:59 38.07271 109.16576 39922 ft 450 kts 281°
2026-04-24 12:59 38.07972 109.08692 39927 ft 449 kts 281°
2026-04-24 13:00 38.08666 109.00811 39931 ft 449 kts 281°
2026-04-24 13:00 38.09356 108.92929 39939 ft 449 kts 281°
2026-04-24 13:01 38.10039 108.85057 39942 ft 449 kts 281°
2026-04-24 13:01 38.10716 108.77186 39938 ft 448 kts 281°
2026-04-24 13:02 38.11388 108.69318 39947 ft 448 kts 281°
2026-04-24 13:02 38.12054 108.61458 39949 ft 448 kts 281°
2026-04-24 13:03 38.12715 108.53601 39949 ft 447 kts 281°
2026-04-24 13:03 38.13369 108.45752 39954 ft 447 kts 281°
2026-04-24 13:04 38.14019 108.37901 39963 ft 447 kts 281°
2026-04-24 13:04 38.14662 108.30059 39966 ft 446 kts 281°
2026-04-24 13:05 38.15412 108.22254 39963 ft 445 kts 282°
2026-04-24 13:05 38.16209 108.14463 39965 ft 445 kts 282°
2026-04-24 13:06 38.16962 108.06860 39962 ft 444 kts 282°
2026-04-24 13:06 38.17721 107.99064 39963 ft 444 kts 282°
2026-04-24 13:07 38.18474 107.91272 39965 ft 444 kts 282°
2026-04-24 13:07 38.19222 107.83471 39968 ft 445 kts 282°
2026-04-24 13:08 38.19966 107.75666 39973 ft 445 kts 282°
2026-04-24 13:08 38.20800 107.67884 39970 ft 444 kts 283°
2026-04-24 13:09 38.22171 107.56234 39975 ft 444 kts 283°
2026-04-24 13:09 38.23057 107.48451 39975 ft 445 kts 283°
2026-04-24 13:10 38.23932 107.40662 39976 ft 445 kts 283°
2026-04-24 13:10 38.24804 107.32863 39979 ft 445 kts 283°
2026-04-24 13:11 38.25670 107.25063 39980 ft 446 kts 283°
2026-04-24 13:11 38.26533 107.17250 39982 ft 446 kts 283°
2026-04-24 13:12 38.27391 107.09433 39981 ft 446 kts 283°
2026-04-24 13:12 38.28244 107.01604 39982 ft 447 kts 283°
2026-04-24 13:13 38.29087 106.93817 39978 ft 447 kts 283°
2026-04-24 13:13 38.29936 106.85927 39974 ft 447 kts 283°
2026-04-24 13:14 38.30775 106.78082 39968 ft 447 kts 283°
2026-04-24 13:14 38.31604 106.70291 39977 ft 447 kts 283°
2026-04-24 13:15 38.32431 106.62451 39982 ft 447 kts 283°
2026-04-24 13:15 38.33253 106.54614 39974 ft 446 kts 283°
2026-04-24 13:16 38.34069 106.46783 39979 ft 446 kts 283°
2026-04-24 13:16 38.35332 106.39133 39972 ft 438 kts 292°
2026-04-24 13:17 38.37393 106.31878 39973 ft 434 kts 296°
2026-04-24 13:17 38.39544 106.24689 39974 ft 434 kts 295°
2026-04-24 13:18 38.41677 106.17499 39976 ft 433 kts 295°
2026-04-24 13:18 38.43804 106.10320 39984 ft 432 kts 295°
2026-04-24 13:19 38.45934 106.03160 39989 ft 432 kts 295°
2026-04-24 13:19 38.48065 105.96000 39994 ft 431 kts 295°
2026-04-24 13:20 38.50173 105.88883 39992 ft 426 kts 295°
2026-04-24 13:20 38.52271 105.81774 39993 ft 429 kts 295°
2026-04-24 13:21 38.54378 105.74634 40000 ft 429 kts 295°
2026-04-24 13:21 38.56475 105.67508 40004 ft 429 kts 295°
2026-04-24 13:22 38.58570 105.60370 40000 ft 429 kts 295°
2026-04-24 13:22 38.60657 105.53232 39993 ft 429 kts 295°
2026-04-24 13:23 38.62725 105.46141 39989 ft 429 kts 295°
2026-04-24 13:23 38.64804 105.38994 39993 ft 429 kts 295°
2026-04-24 13:24 38.66879 105.31841 39987 ft 429 kts 295°
2026-04-24 13:24 38.68950 105.24683 39986 ft 429 kts 294°
2026-04-24 13:25 38.71017 105.17520 39988 ft 429 kts 294°
2026-04-24 13:25 38.73074 105.10346 39992 ft 429 kts 293°
2026-04-24 13:26 38.74694 105.02950 39984 ft 432 kts 289°
2026-04-24 13:26 38.76187 104.95492 39983 ft 432 kts 289°
2026-04-24 13:27 38.78110 104.88250 39986 ft 427 kts 296°
2026-04-24 13:27 38.80364 104.81194 39981 ft 428 kts 296°
2026-04-24 13:28 38.82588 104.74122 39978 ft 428 kts 296°
2026-04-24 13:28 38.84794 104.67089 39980 ft 428 kts 296°
2026-04-24 13:29 38.87012 104.60006 39971 ft 428 kts 295°
2026-04-24 13:29 38.89225 104.52921 39970 ft 428 kts 295°
2026-04-24 13:30 38.91435 104.45830 39965 ft 428 kts 295°
2026-04-24 13:30 38.93638 104.38743 39964 ft 427 kts 295°
2026-04-24 13:31 38.95837 104.31650 39958 ft 427 kts 295°
2026-04-24 13:31 38.98030 104.24555 39956 ft 427 kts 295°
2026-04-24 13:32 39.00218 104.17461 39953 ft 427 kts 295°
2026-04-24 13:32 39.02400 104.10367 39950 ft 427 kts 295°
2026-04-24 13:33 39.04577 104.03271 39938 ft 427 kts 295°
2026-04-24 13:33 39.06749 103.96173 39932 ft 426 kts 295°
2026-04-24 13:34 39.08917 103.89071 39943 ft 426 kts 295°
2026-04-24 13:34 39.11078 103.81973 39944 ft 426 kts 295°
2026-04-24 13:35 39.13234 103.74873 39938 ft 426 kts 295°
2026-04-24 13:35 39.15372 103.67815 39940 ft 426 kts 295°
2026-04-24 13:36 39.17519 103.60708 39938 ft 426 kts 295°
2026-04-24 13:36 39.19661 103.53597 39936 ft 426 kts 295°
2026-04-24 13:37 39.21800 103.46479 39935 ft 425 kts 295°
2026-04-24 13:37 39.23930 103.39368 39935 ft 425 kts 295°
2026-04-24 13:38 39.26059 103.32249 39936 ft 425 kts 295°
2026-04-24 13:38 39.28182 103.25125 39932 ft 425 kts 295°
2026-04-24 13:39 39.30302 103.17996 39932 ft 425 kts 295°
2026-04-24 13:39 39.32417 103.10863 39934 ft 425 kts 295°
2026-04-24 13:40 39.34528 103.03725 39936 ft 425 kts 295°
2026-04-24 13:40 39.36634 102.96583 39931 ft 425 kts 294°
2026-04-24 13:41 39.38715 102.89427 39931 ft 425 kts 294°
2026-04-24 13:41 39.40791 102.82270 39933 ft 425 kts 294°
2026-04-24 13:42 39.42460 102.74910 39925 ft 429 kts 286°
2026-04-24 13:42 39.43456 102.67276 39928 ft 431 kts 284°
2026-04-24 13:43 39.44367 102.59617 39924 ft 431 kts 283°
2026-04-24 13:43 39.45226 102.52118 39921 ft 431 kts 283°
2026-04-24 13:44 39.46112 102.44423 39916 ft 431 kts 283°
2026-04-24 13:44 39.46991 102.36756 39922 ft 431 kts 283°
2026-04-24 13:45 39.47866 102.29077 39935 ft 431 kts 283°
2026-04-24 13:45 39.48736 102.21387 39926 ft 431 kts 283°
2026-04-24 13:46 39.49599 102.13705 39929 ft 432 kts 283°
2026-04-24 13:46 39.50455 102.06048 39934 ft 432 kts 283°
2026-04-24 13:47 39.51313 101.98320 39931 ft 432 kts 283°
2026-04-24 13:47 39.52162 101.90627 39922 ft 432 kts 283°
2026-04-24 13:48 39.52865 101.84227 39921 ft 432 kts 283°
2026-04-24 13:48 39.53704 101.76539 39919 ft 432 kts 283°
2026-04-24 13:49 39.54528 101.68938 39921 ft 432 kts 283°
2026-04-24 13:49 39.55462 101.60259 39917 ft 432 kts 283°
2026-04-24 13:50 39.56153 101.53808 39920 ft 432 kts 283°
2026-04-24 13:50 39.56973 101.46104 39922 ft 432 kts 283°
2026-04-24 13:51 39.57788 101.38399 39920 ft 431 kts 283°
2026-04-24 13:51 39.58596 101.30697 39918 ft 431 kts 283°
2026-04-24 13:52 39.59400 101.22997 39919 ft 431 kts 283°
2026-04-24 13:52 39.60197 101.15303 39920 ft 431 kts 283°
2026-04-24 13:53 39.60990 101.07610 39918 ft 430 kts 283°
2026-04-24 13:53 39.61776 100.99928 39918 ft 429 kts 283°
2026-04-24 13:54 39.62546 100.92340 39917 ft 429 kts 283°
2026-04-24 13:54 39.63320 100.84678 39920 ft 428 kts 283°
2026-04-24 13:55 39.64088 100.77024 39916 ft 428 kts 282°
2026-04-24 13:55 39.64849 100.69379 39914 ft 427 kts 282°
2026-04-24 13:56 39.65604 100.61742 39914 ft 426 kts 282°
2026-04-24 13:56 39.66354 100.54111 39914 ft 426 kts 282°
2026-04-24 13:57 39.67099 100.46480 39915 ft 426 kts 282°
2026-04-24 13:57 39.67838 100.38858 39907 ft 426 kts 282°
2026-04-24 13:58 39.68572 100.31233 39906 ft 426 kts 282°
2026-04-24 13:58 39.69302 100.23604 39906 ft 426 kts 282°
2026-04-24 13:59 39.70026 100.15976 39902 ft 426 kts 282°
2026-04-24 13:59 39.70745 100.08343 39903 ft 426 kts 282°
2026-04-24 14:00 39.71459 100.00703 39902 ft 426 kts 282°
2026-04-24 14:00 39.72170 99.93057 39904 ft 427 kts 282°
2026-04-24 14:01 39.72875 99.85400 39902 ft 427 kts 282°
2026-04-24 14:01 39.73573 99.77780 39901 ft 428 kts 282°
2026-04-24 14:02 39.74274 99.70050 39901 ft 428 kts 281°
2026-04-24 14:02 39.74963 99.62416 39894 ft 428 kts 281°
2026-04-24 14:03 39.75651 99.54726 39898 ft 428 kts 281°
2026-04-24 14:03 39.76334 99.47037 39897 ft 428 kts 281°
2026-04-24 14:04 39.77012 99.39348 39895 ft 428 kts 281°
2026-04-24 14:04 39.77683 99.31668 39901 ft 427 kts 281°
2026-04-24 14:05 39.78349 99.23996 39895 ft 427 kts 281°
2026-04-24 14:05 39.79010 99.16326 39894 ft 427 kts 281°
2026-04-24 14:06 39.79665 99.08660 39884 ft 426 kts 281°
2026-04-24 14:06 39.80317 99.01000 39890 ft 426 kts 281°
2026-04-24 14:07 39.80896 98.93327 39887 ft 427 kts 278°
2026-04-24 14:07 39.81378 98.85631 39881 ft 426 kts 279°
2026-04-24 14:08 39.81889 98.77949 39883 ft 426 kts 279°
2026-04-24 14:08 39.82381 98.70262 39886 ft 426 kts 279°
2026-04-24 14:09 39.82862 98.62572 39885 ft 427 kts 279°
2026-04-24 14:09 39.83338 98.54882 39890 ft 427 kts 279°
2026-04-24 14:10 39.83809 98.47187 39892 ft 427 kts 279°
2026-04-24 14:10 39.84247 98.39492 39891 ft 427 kts 277°
2026-04-24 14:11 39.84060 98.31727 39898 ft 432 kts 269°
2026-04-24 14:12 39.82790 98.20087 39910 ft 433 kts 267°
2026-04-24 14:12 39.81941 98.12349 39915 ft 432 kts 267°
2026-04-24 14:13 39.81086 98.04627 39937 ft 431 kts 267°
2026-04-24 14:13 39.80230 97.96977 39925 ft 429 kts 267°
2026-04-24 14:14 39.79369 97.89319 39934 ft 428 kts 267°
2026-04-24 14:14 39.78070 97.77859 39940 ft 427 kts 266°
2026-04-24 14:15 39.77200 97.70234 39951 ft 426 kts 266°
2026-04-24 14:15 39.76326 97.62626 39961 ft 425 kts 266°
2026-04-24 14:16 39.75448 97.55025 39971 ft 425 kts 266°
2026-04-24 14:17 39.73978 97.43634 39974 ft 426 kts 265°
2026-04-24 14:17 39.72450 97.32271 39959 ft 426 kts 265°
2026-04-24 14:18 39.71436 97.24691 39978 ft 426 kts 265°
2026-04-24 14:18 39.70444 97.17110 39979 ft 426 kts 265°
2026-04-24 14:19 39.69447 97.09531 39976 ft 426 kts 265°
2026-04-24 14:19 39.68442 97.01959 39979 ft 425 kts 265°
2026-04-24 14:20 39.67430 96.94392 39982 ft 426 kts 265°
2026-04-24 14:20 39.66416 96.86826 39989 ft 426 kts 264°
2026-04-24 14:21 39.65406 96.79311 39989 ft 425 kts 264°
2026-04-24 14:21 39.64380 96.71761 39999 ft 424 kts 264°
2026-04-24 14:22 39.63352 96.64227 40000 ft 424 kts 264°
2026-04-24 14:23 39.61880 96.52945 40005 ft 423 kts 265°
2026-04-24 14:23 39.60928 96.45427 40010 ft 422 kts 265°
2026-04-24 14:24 39.59966 96.37920 40008 ft 421 kts 265°
2026-04-24 14:24 39.58998 96.30426 40000 ft 422 kts 264°
2026-04-24 14:25 39.58180 96.24196 40007 ft 422 kts 264°
2026-04-24 14:25 39.57029 96.15424 40017 ft 423 kts 264°
2026-04-24 14:26 39.56053 96.07931 40011 ft 420 kts 265°
2026-04-24 14:26 39.55234 96.00426 40013 ft 420 kts 266°
2026-04-24 14:27 39.54434 95.92927 40007 ft 420 kts 266°
2026-04-24 14:27 39.53611 95.85428 40009 ft 421 kts 265°
2026-04-24 14:28 39.52775 95.77937 40010 ft 420 kts 265°
2026-04-24 14:28 39.51941 95.70523 40011 ft 419 kts 265°
2026-04-24 14:29 39.51096 95.63056 40019 ft 419 kts 265°
2026-04-24 14:29 39.50249 95.55573 40018 ft 420 kts 265°
2026-04-24 14:30 39.49533 95.49321 40010 ft 419 kts 265°
2026-04-24 14:30 39.48534 95.40643 40009 ft 419 kts 265°
2026-04-24 14:31 39.47669 95.33178 40000 ft 419 kts 265°
2026-04-24 14:31 39.46799 95.25709 39998 ft 420 kts 265°
2026-04-24 14:32 39.45925 95.18244 39991 ft 419 kts 265°
2026-04-24 14:32 39.45047 95.10787 39985 ft 419 kts 265°
2026-04-24 14:33 39.44164 95.03333 39978 ft 419 kts 265°
2026-04-24 14:33 39.43277 94.95889 39969 ft 419 kts 264°
2026-04-24 14:34 39.42391 94.88474 39969 ft 421 kts 264°
2026-04-24 14:34 39.41492 94.81021 39966 ft 418 kts 264°
2026-04-24 14:35 39.40588 94.73552 39951 ft 422 kts 264°
2026-04-24 14:35 39.39677 94.66066 39946 ft 422 kts 264°
2026-04-24 14:36 39.38759 94.58588 39945 ft 420 kts 264°
2026-04-24 14:36 39.37839 94.51100 39943 ft 423 kts 264°
2026-04-24 14:37 39.37067 94.44856 39932 ft 424 kts 264°
2026-04-24 14:37 39.36133 94.37349 39939 ft 423 kts 264°
2026-04-24 14:38 39.35195 94.29836 39935 ft 424 kts 264°
2026-04-24 14:38 39.34245 94.22314 39935 ft 426 kts 264°
2026-04-24 14:39 39.33291 94.14765 39932 ft 424 kts 263°
2026-04-24 14:39 39.32340 94.07254 39930 ft 425 kts 263°
2026-04-24 14:40 39.31376 93.99714 39936 ft 425 kts 263°
2026-04-24 14:40 39.30420 93.92264 39957 ft 419 kts 263°
2026-04-24 14:41 39.29455 93.84774 39957 ft 425 kts 263°
2026-04-24 14:41 39.28480 93.77263 39965 ft 424 kts 263°
2026-04-24 14:42 39.27501 93.69774 39956 ft 424 kts 263°
2026-04-24 14:42 39.26518 93.62277 39962 ft 423 kts 263°
2026-04-24 14:43 39.25530 93.54787 39949 ft 424 kts 263°
2026-04-24 14:43 39.24541 93.47317 39952 ft 422 kts 263°
2026-04-24 14:44 39.23547 93.39860 39944 ft 422 kts 263°
2026-04-24 14:44 39.22549 93.32397 39933 ft 422 kts 263°
2026-04-24 14:45 39.21549 93.24939 39935 ft 422 kts 263°
2026-04-24 14:45 39.20545 93.17524 39921 ft 418 kts 263°
2026-04-24 14:46 39.19544 93.10172 39928 ft 422 kts 262°
2026-04-24 14:46 39.18520 93.02686 39916 ft 419 kts 262°
2026-04-24 14:47 39.17515 92.95345 39915 ft 419 kts 262°
2026-04-24 14:47 39.16494 92.87933 39907 ft 421 kts 262°
2026-04-24 14:48 39.15461 92.80488 39906 ft 419 kts 262°
2026-04-24 14:48 39.14441 92.73154 39906 ft 419 kts 262°
2026-04-24 14:49 39.13411 92.65780 39906 ft 418 kts 262°
2026-04-24 14:49 39.12373 92.58404 39904 ft 418 kts 262°
2026-04-24 14:50 39.11334 92.51048 39906 ft 417 kts 262°
2026-04-24 14:50 39.10290 92.43689 39908 ft 418 kts 262°
2026-04-24 14:51 39.09244 92.36325 39914 ft 418 kts 262°
2026-04-24 14:51 39.08194 92.28965 39913 ft 418 kts 262°
2026-04-24 14:52 39.07105 92.21618 39916 ft 418 kts 261°
2026-04-24 14:52 39.06005 92.14270 39918 ft 419 kts 261°
2026-04-24 14:53 39.04905 92.06921 39937 ft 419 kts 261°
2026-04-24 14:53 39.03800 91.99555 39944 ft 420 kts 261°
2026-04-24 14:54 39.02688 91.92177 39949 ft 421 kts 261°
2026-04-24 14:54 39.01571 91.84796 39955 ft 421 kts 261°
2026-04-24 14:55 39.00639 91.78659 39953 ft 421 kts 261°
2026-04-24 14:55 38.99329 91.70074 39950 ft 421 kts 261°
2026-04-24 14:56 38.98195 91.62683 39947 ft 422 kts 261°
2026-04-24 14:56 38.97055 91.55285 39944 ft 422 kts 261°
2026-04-24 14:57 38.95910 91.47885 39944 ft 422 kts 261°
2026-04-24 14:57 38.94760 91.40486 39943 ft 423 kts 261°
2026-04-24 14:58 38.93604 91.33082 39939 ft 423 kts 260°
2026-04-24 14:58 38.92443 91.25677 39945 ft 423 kts 260°
2026-04-24 14:59 38.91276 91.18262 39953 ft 423 kts 260°
2026-04-24 14:59 38.90105 91.10859 39966 ft 423 kts 260°
2026-04-24 15:00 38.88930 91.03460 39958 ft 423 kts 260°
2026-04-24 15:00 38.87751 90.96071 39963 ft 422 kts 260°
2026-04-24 15:01 38.86713 90.88668 39963 ft 421 kts 263°
2026-04-24 15:01 38.85840 90.81247 39970 ft 420 kts 263°
2026-04-24 15:02 38.84939 90.73895 39967 ft 420 kts 262°
2026-04-24 15:02 38.84007 90.66507 39960 ft 420 kts 262°
2026-04-24 15:03 38.83068 90.59126 39953 ft 419 kts 262°
2026-04-24 15:03 38.82126 90.51758 39948 ft 419 kts 262°
2026-04-24 15:04 38.81181 90.44395 39953 ft 418 kts 262°
2026-04-24 15:04 38.80231 90.37044 39959 ft 418 kts 262°
2026-04-24 15:05 38.79279 90.29705 39956 ft 417 kts 262°
2026-04-24 15:05 38.78324 90.22371 39935 ft 417 kts 262°
2026-04-24 15:06 38.77364 90.15034 39933 ft 417 kts 262°
2026-04-24 15:06 38.76400 90.07705 39931 ft 417 kts 262°
2026-04-24 15:07 38.75432 90.00380 39930 ft 417 kts 262°
2026-04-24 15:07 38.74458 89.93055 39940 ft 417 kts 262°
2026-04-24 15:08 38.73480 89.85729 39943 ft 417 kts 261°
2026-04-24 15:08 38.72498 89.78406 39944 ft 417 kts 261°
2026-04-24 15:09 38.71510 89.71083 39937 ft 418 kts 261°
2026-04-24 15:09 38.70517 89.63753 39945 ft 418 kts 261°
2026-04-24 15:10 38.69518 89.56419 39955 ft 418 kts 261°
2026-04-24 15:10 38.68513 89.49080 39955 ft 419 kts 261°
2026-04-24 15:11 38.67504 89.41741 39965 ft 419 kts 261°
2026-04-24 15:11 38.66489 89.34392 39970 ft 419 kts 261°
2026-04-24 15:12 38.65468 89.27045 39974 ft 419 kts 261°
2026-04-24 15:12 38.63928 89.16016 39966 ft 421 kts 260°
2026-04-24 15:13 38.62894 89.08661 39966 ft 418 kts 260°
2026-04-24 15:13 38.61860 89.01328 39967 ft 420 kts 260°
2026-04-24 15:14 38.60820 88.93980 39970 ft 419 kts 260°
2026-04-24 15:14 38.59774 88.86650 39970 ft 419 kts 260°
2026-04-24 15:15 38.58730 88.79358 39968 ft 420 kts 259°
2026-04-24 15:15 38.57672 88.72016 39963 ft 419 kts 260°
2026-04-24 15:16 38.56799 88.64654 39952 ft 419 kts 263°
2026-04-24 15:16 38.56161 88.57249 39952 ft 419 kts 263°
2026-04-24 15:17 38.55479 88.49850 39938 ft 419 kts 263°
2026-04-24 15:17 38.54764 88.42462 39933 ft 419 kts 263°
2026-04-24 15:18 38.54039 88.35080 39935 ft 419 kts 262°
2026-04-24 15:18 38.53307 88.27692 39927 ft 419 kts 262°
2026-04-24 15:19 38.52573 88.20309 39919 ft 419 kts 262°
2026-04-24 15:19 38.51835 88.12917 39918 ft 419 kts 262°
2026-04-24 15:20 38.51089 88.05532 39910 ft 420 kts 262°
2026-04-24 15:20 38.50341 87.98137 39897 ft 420 kts 262°
2026-04-24 15:21 38.49582 87.90736 39885 ft 420 kts 262°
2026-04-24 15:21 38.48819 87.83345 39878 ft 420 kts 262°
2026-04-24 15:22 38.48060 87.75951 39876 ft 420 kts 262°
2026-04-24 15:23 38.46907 87.64883 39869 ft 420 kts 262°
2026-04-24 15:23 38.45748 87.53864 39863 ft 419 kts 262°
2026-04-24 15:25 38.43916 87.36645 39848 ft 419 kts 261°
2026-04-24 15:26 38.41933 87.18279 39843 ft 419 kts 261°
2026-04-24 15:27 38.39507 86.96180 39838 ft 420 kts 261°
2026-04-24 15:29 38.37036 86.74064 39834 ft 421 kts 261°
2026-04-24 15:31 38.34093 86.48211 39815 ft 422 kts 261°
2026-04-24 15:33 38.30647 86.18579 39811 ft 424 kts 261°
2026-04-24 15:34 38.28452 86.00057 39815 ft 425 kts 261°
2026-04-24 15:35 38.26218 85.81458 39818 ft 426 kts 260°
2026-04-24 15:36 38.25315 85.74010 39823 ft 426 kts 260°
2026-04-24 15:36 38.23950 85.62838 39823 ft 426 kts 260°
2026-04-24 15:37 38.23035 85.55384 39827 ft 426 kts 260°
2026-04-24 15:37 38.22006 85.47960 39825 ft 426 kts 256°
2026-04-24 15:38 38.20335 85.40738 39827 ft 426 kts 250°
2026-04-24 15:38 38.18034 85.33794 39824 ft 427 kts 247°
2026-04-24 15:39 38.15649 85.26886 39824 ft 427 kts 247°
2026-04-24 15:39 38.13270 85.19980 39826 ft 427 kts 247°
2026-04-24 15:40 38.10880 85.13072 39824 ft 427 kts 247°
2026-04-24 15:40 38.08483 85.06167 39823 ft 428 kts 247°
2026-04-24 15:41 38.06079 84.99255 39822 ft 428 kts 247°
2026-04-24 15:41 38.03670 84.92348 39827 ft 428 kts 247°
2026-04-24 15:42 38.01488 84.85328 39819 ft 428 kts 253°
2026-04-24 15:42 38.00098 84.77992 39820 ft 428 kts 258°
2026-04-24 15:43 37.98842 84.70662 39819 ft 429 kts 257°
2026-04-24 15:43 37.97553 84.63283 39821 ft 429 kts 257°
2026-04-24 15:44 37.96258 84.55902 39818 ft 429 kts 257°
2026-04-24 15:44 37.94959 84.48518 39822 ft 429 kts 257°
2026-04-24 15:45 37.93653 84.41129 39817 ft 430 kts 257°
2026-04-24 15:45 37.92344 84.33743 39820 ft 430 kts 257°
2026-04-24 15:46 37.91029 84.26360 39819 ft 430 kts 257°
2026-04-24 15:46 37.89710 84.18980 39822 ft 430 kts 257°
2026-04-24 15:47 37.88386 84.11599 39819 ft 430 kts 257°
2026-04-24 15:47 37.87057 84.04218 39823 ft 430 kts 257°
2026-04-24 15:48 37.85724 83.96842 39823 ft 430 kts 257°
2026-04-24 15:48 37.84386 83.89473 39825 ft 430 kts 257°
2026-04-24 15:49 37.83043 83.82103 39822 ft 430 kts 257°
2026-04-24 15:49 37.81696 83.74738 39820 ft 430 kts 257°
2026-04-24 15:50 37.80346 83.67379 39822 ft 430 kts 257°
2026-04-24 15:50 37.78998 83.60067 39825 ft 430 kts 257°
2026-04-24 15:51 37.77639 83.52718 39826 ft 429 kts 257°
2026-04-24 15:51 37.76275 83.45369 39822 ft 429 kts 257°
2026-04-24 15:52 37.74908 83.38027 39822 ft 429 kts 257°
2026-04-24 15:52 37.73534 83.30687 39821 ft 429 kts 257°
2026-04-24 15:53 37.72158 83.23357 39820 ft 429 kts 257°
2026-04-24 15:53 37.70784 83.16027 39818 ft 429 kts 257°
2026-04-24 15:54 37.69407 83.08708 39820 ft 428 kts 257°
2026-04-24 15:54 37.68023 83.01395 39817 ft 428 kts 257°
2026-04-24 15:55 37.66635 82.94094 39815 ft 428 kts 257°
2026-04-24 15:55 37.65244 82.86797 39815 ft 427 kts 257°
2026-04-24 15:56 37.63850 82.79514 39815 ft 427 kts 257°
2026-04-24 15:56 37.62453 82.72239 39815 ft 426 kts 257°
2026-04-24 15:57 37.61054 82.64980 39817 ft 426 kts 257°
2026-04-24 15:57 37.59653 82.57736 39818 ft 425 kts 257°
2026-04-24 15:58 37.58251 82.50514 39821 ft 424 kts 257°
2026-04-24 15:58 37.56847 82.43309 39819 ft 423 kts 257°
2026-04-24 15:59 37.55454 82.36176 39815 ft 422 kts 257°
2026-04-24 15:59 37.54048 82.29008 39811 ft 421 kts 257°
2026-04-24 16:00 37.52639 82.21851 39811 ft 420 kts 257°
2026-04-24 16:00 37.51229 82.14712 39810 ft 420 kts 257°
2026-04-24 16:01 37.49817 82.07585 39806 ft 419 kts 257°
2026-04-24 16:01 37.48401 82.00461 39806 ft 419 kts 257°
2026-04-24 16:02 37.46982 81.93351 39802 ft 419 kts 256°
2026-04-24 16:02 37.45559 81.86243 39802 ft 419 kts 256°
2026-04-24 16:03 37.44133 81.79143 39797 ft 418 kts 256°
2026-04-24 16:03 37.42704 81.72054 39801 ft 418 kts 256°
2026-04-24 16:04 37.41269 81.64958 39797 ft 418 kts 256°
2026-04-24 16:04 37.39833 81.57884 39801 ft 418 kts 256°
2026-04-24 16:05 37.37669 81.47260 39804 ft 419 kts 256°
2026-04-24 16:06 37.35491 81.36624 39804 ft 418 kts 256°
2026-04-24 16:07 37.33305 81.25996 39804 ft 419 kts 256°
2026-04-24 16:07 37.31106 81.15363 39806 ft 419 kts 256°
2026-04-24 16:08 37.28895 81.04725 39807 ft 419 kts 256°
2026-04-24 16:09 37.26687 80.94153 39811 ft 419 kts 255°
2026-04-24 16:09 37.25204 80.87077 39809 ft 419 kts 255°
2026-04-24 16:11 37.21481 80.69422 39805 ft 418 kts 255°
2026-04-24 16:11 37.19986 80.62371 39804 ft 418 kts 255°
2026-04-24 16:12 37.17735 80.51800 39807 ft 418 kts 255°
2026-04-24 16:13 37.15476 80.41239 39811 ft 418 kts 255°
2026-04-24 16:14 37.12451 80.27175 39815 ft 418 kts 255°
2026-04-24 16:14 37.10428 80.17816 39818 ft 418 kts 255°
2026-04-24 16:15 37.08139 80.07274 39821 ft 418 kts 254°
2026-04-24 16:16 37.05837 79.96724 39829 ft 419 kts 254°
2026-04-24 16:17 37.03623 79.78758 39837 ft 422 kts 268°
2026-04-24 16:18 37.03591 79.64064 39847 ft 422 kts 268°
2026-04-24 16:19 37.03539 79.53022 39848 ft 423 kts 267°
2026-04-24 16:20 37.03475 79.41979 39867 ft 423 kts 267°
2026-04-24 16:20 37.03400 79.30926 39882 ft 423 kts 267°
2026-04-24 16:21 37.03314 79.19894 39894 ft 422 kts 267°
2026-04-24 16:22 37.03252 79.12550 39910 ft 422 kts 267°
2026-04-24 16:22 37.03150 79.01540 39919 ft 422 kts 267°
2026-04-24 16:23 37.03078 78.94253 39932 ft 421 kts 266°
2026-04-24 16:24 37.02959 78.83253 39943 ft 422 kts 266°
2026-04-24 16:24 37.02873 78.75915 39965 ft 421 kts 266°
2026-04-24 16:25 37.02785 78.68586 39975 ft 421 kts 266°
2026-04-24 16:25 37.02691 78.61294 39980 ft 419 kts 266°
2026-04-24 16:26 37.02540 78.50385 40001 ft 417 kts 266°
2026-04-24 16:27 37.02395 78.39418 40011 ft 420 kts 266°
2026-04-24 16:27 37.02271 78.32142 40032 ft 420 kts 266°
2026-04-24 16:28 37.02151 78.24829 40046 ft 420 kts 266°
2026-04-24 16:28 37.01968 78.13889 40059 ft 419 kts 266°
2026-04-24 16:29 37.01826 78.06571 40069 ft 420 kts 266°
2026-04-24 16:30 37.01568 77.91989 40085 ft 420 kts 266°
2026-04-24 16:30 37.01428 77.84693 40095 ft 421 kts 266°
2026-04-24 16:31 37.01294 77.77473 40098 ft 417 kts 266°
2026-04-24 16:31 37.01140 77.70209 40107 ft 418 kts 266°
2026-04-24 16:32 37.00991 77.62940 40101 ft 416 kts 267°
2026-04-24 16:32 37.00843 77.55695 40081 ft 415 kts 266°
2026-04-24 16:33 37.00678 77.48462 40056 ft 416 kts 266°
2026-04-24 16:33 37.00507 77.41212 40112 ft 419 kts 266°
2026-04-24 16:34 37.00328 77.33918 40117 ft 419 kts 266°
2026-04-24 16:34 37.00154 77.26664 40098 ft 416 kts 266°
2026-04-24 16:35 36.99992 77.19470 40187 ft 414 kts 266°
2026-04-24 16:35 36.99800 77.12204 40120 ft 419 kts 266°
2026-04-24 16:36 36.99606 77.04937 40108 ft 418 kts 265°
2026-04-24 16:36 36.99411 76.97672 40121 ft 418 kts 265°
2026-04-24 16:37 36.99211 76.90413 40117 ft 417 kts 265°
2026-04-24 16:37 36.99011 76.83183 40120 ft 418 kts 266°
2026-04-24 16:38 36.98803 76.75939 40142 ft 418 kts 265°
2026-04-24 16:38 36.98599 76.68666 40133 ft 418 kts 265°
2026-04-24 16:39 36.98383 76.61421 40134 ft 415 kts 265°
2026-04-24 16:39 36.98163 76.54170 40138 ft 421 kts 265°
2026-04-24 16:40 36.97939 76.46900 40156 ft 418 kts 265°
2026-04-24 16:40 36.97712 76.39660 40179 ft 422 kts 265°
2026-04-24 16:41 36.97476 76.32338 40161 ft 416 kts 265°
2026-04-24 16:41 36.97239 76.25092 40157 ft 418 kts 265°
2026-04-24 16:42 36.97002 76.17886 40165 ft 421 kts 265°
2026-04-24 16:42 36.96756 76.10623 40165 ft 417 kts 265°
2026-04-24 16:43 36.96505 76.03387 40163 ft 416 kts 265°
2026-04-24 16:43 36.96250 75.96133 40167 ft 420 kts 265°
2026-04-24 16:44 36.95997 75.88882 40176 ft 416 kts 265°
2026-04-24 16:44 36.95736 75.81679 40190 ft 415 kts 265°
2026-04-24 16:45 36.95466 75.74426 40200 ft 419 kts 265°
2026-04-24 16:45 36.95191 75.67162 40210 ft 419 kts 264°
2026-04-24 16:46 36.94916 75.59924 40219 ft 416 kts 264°
2026-04-24 16:46 36.94639 75.52677 40229 ft 419 kts 264°
2026-04-24 16:47 36.94205 75.45421 40228 ft 415 kts 259°
2026-04-24 16:47 36.93073 75.38360 40235 ft 415 kts 253°
2026-04-24 16:48 36.91254 75.31687 40233 ft 416 kts 246°
2026-04-24 16:48 36.89130 75.25150 40256 ft 413 kts 248°
2026-04-24 16:49 36.86999 75.18461 40245 ft 415 kts 248°
2026-04-24 16:49 36.84868 75.11818 40229 ft 415 kts 247°
2026-04-24 16:50 36.82738 75.05193 40245 ft 408 kts 247°
2026-04-24 16:50 36.80605 74.98594 40244 ft 413 kts 247°
2026-04-24 16:51 36.78446 74.91924 40247 ft 415 kts 247°
2026-04-24 16:51 36.76271 74.85278 40243 ft 412 kts 245°
2026-04-24 16:52 36.73753 74.78834 40246 ft 416 kts 243°
2026-04-24 16:52 36.71192 74.72398 40255 ft 413 kts 244°
2026-04-24 16:53 36.68705 74.66007 40248 ft 407 kts 244°
2026-04-24 16:53 36.66234 74.59620 40242 ft 411 kts 244°
2026-04-24 16:54 36.63731 74.53163 40247 ft 416 kts 244°
2026-04-24 16:54 36.61214 74.46696 40256 ft 416 kts 244°
2026-04-24 16:55 36.58690 74.40234 40247 ft 416 kts 243°
2026-04-24 16:55 36.56160 74.33775 40239 ft 416 kts 243°
2026-04-24 16:56 36.53628 74.27304 40235 ft 418 kts 244°
2026-04-24 16:56 36.51085 74.20809 40264 ft 416 kts 244°
2026-04-24 16:57 36.48528 74.14306 40249 ft 420 kts 244°
2026-04-24 16:57 36.45947 74.07776 40227 ft 421 kts 244°
2026-04-24 16:58 36.43375 74.01266 40223 ft 420 kts 244°
2026-04-24 16:58 36.40807 73.94783 40243 ft 420 kts 244°
2026-04-24 16:59 36.38220 73.88256 40220 ft 422 kts 243°
2026-04-24 17:00 36.34334 73.78479 40216 ft 420 kts 243°
2026-04-24 17:00 36.30446 73.68742 40223 ft 424 kts 244°
2026-04-24 17:01 36.26522 73.58939 40208 ft 422 kts 244°
2026-04-24 17:02 36.22587 73.49120 40230 ft 424 kts 244°
2026-04-24 17:02 36.19958 73.42584 40214 ft 422 kts 243°
2026-04-24 17:03 36.16000 73.32779 40213 ft 426 kts 244°
2026-04-24 17:04 36.13801 73.27344 40222 ft 425 kts 244°
2026-04-24 17:04 36.09820 73.17538 40243 ft 426 kts 244°
2026-04-24 17:05 36.07168 73.11003 40241 ft 424 kts 244°
2026-04-24 17:06 36.03184 73.01216 40258 ft 426 kts 244°
2026-04-24 17:06 35.99171 72.91389 40257 ft 425 kts 244°
2026-04-24 17:07 35.96497 72.84863 40238 ft 426 kts 244°
2026-04-24 17:08 35.91121 72.71779 40251 ft 428 kts 244°
2026-04-24 17:08 35.88433 72.65270 40261 ft 424 kts 244°
2026-04-24 17:09 35.83049 72.52222 40215 ft 424 kts 245°
2026-04-24 17:10 35.77702 72.39315 40236 ft 426 kts 244°
2026-04-24 17:12 35.66877 72.13408 40164 ft 421 kts 245°